Location: Fort Worth, Tx
(32.7431°N, 97.3695°W)
Time: 21:00:24
(UTC-04:00)

Max Valier Satellite - Pass Details

Date: 02 April 2023
Orbit: 444 x 458 km, 97.2° (Epoch: 04 June)

Event Time Altitude Azimuth Distance (km) Brightness Sun altitude
Exits shadow 21:15:00 - 126° (SE) 1,960 ? -6.0°
Reaches altitude 10° 21:16:14 10° 113° (ESE) 1,563 ? -6.2°
Drops below altitude 10° 21:20:41 10° 30° (NNE) 1,576 ? -7.2°
Enters shadow 22:25:29 -48° 173° (S) 10,124 ? -20.3°
Maximum altitude 22:51:15 18° 265° (W) 1,181 ? -25.2°
